| time (UTC) | temp F | wind direction | speed knots | gust knots | rain 1hr in | rain 24hr in | rain mn in | humidity % | barometer mb |
| 20260903060015 | 74 | 205 | 0.0 | 0.0 | 0.00 | 0.00 | 0.00 | 93 | 1014.8 |
| 20260903054522 | 74 | 205 | 0.0 | 0.0 | 0.00 | 0.00 | 0.00 | 92 | 1014.8 |
| 20260903053018 | 75 | 205 | 0.0 | 0.0 | 0.00 | 0.00 | 0.00 | 92 | 1014.9 |
| 20260903051528 | 75 | 205 | 0.0 | 0.9 | 0.00 | 0.00 | 0.00 | 92 | 1014.7 |
| 20260903050006 | 75 | 205 | 0.0 | 0.0 | 0.00 | 0.00 | 0.00 | 91 | 1014.6 |
| 20260903044509 | 76 | 205 | 0.0 | 0.0 | 0.00 | 0.00 | 0.00 | 90 | 1014.5 |
| 20260903043021 | 77 | 205 | 0.0 | 0.9 | 0.00 | 0.00 | 0.00 | 89 | 1014.4 |
| 20260903041523 | 77 | 205 | 0.0 | 3.5 | 0.00 | 0.00 | 0.00 | 89 | 1014.4 |
| 20260903040028 | 77 | 205 | 0.9 | 3.5 | 0.00 | 0.00 | 0.00 | 88 | 1014.4 |
| 20260903034531 | 78 | 211 | 1.7 | 6.1 | 0.00 | 0.00 | 0.00 | 88 | 1014.2 |
| 20260903033015 | 77 | 211 | 1.7 | 6.1 | 0.00 | 0.00 | 0.00 | 88 | 1013.9 |
| 20260903031515 | 77 | 195 | 1.7 | 6.1 | 0.00 | 0.00 | 0.00 | 89 | 1014.0 |
| 20260903030028 | 76 | 221 | 0.0 | 0.0 | 0.00 | 0.00 | 0.00 | 89 | 1014.0 |
| 20260903024530 | 76 | 192 | 0.0 | 0.0 | 0.00 | 0.00 | 0.00 | 91 | 1013.8 |
| 20260903023039 | 75 | 192 | 0.0 | 0.0 | 0.00 | 0.00 | 0.00 | 91 | 1013.9 |
| 20260903021518 | 75 | 168 | 0.0 | 0.0 | 0.00 | 0.00 | 0.00 | 90 | 1014.3 |
| 20260903020020 | 75 | 168 | 0.0 | 0.0 | 0.00 | 0.00 | 0.00 | 90 | 1014.6 |
| 20260903014524 | 76 | 168 | 0.0 | 0.0 | 0.00 | 0.00 | 0.00 | 89 | 1014.4 |
| 20260903013031 | 77 | 168 | 0.0 | 0.9 | 0.00 | 0.00 | 0.00 | 88 | 1014.3 |
| 20260903011529 | 77 | 168 | 0.0 | 0.9 | 0.00 | 0.00 | 0.00 | 86 | 1014.3 |
| 20260903010017 | 78 | 168 | 0.0 | 0.9 | 0.00 | 0.00 | 0.00 | 85 | 1014.1 |
| 20260903004525 | 79 | 168 | 0.0 | 3.5 | 0.00 | 0.00 | 0.00 | 83 | 1013.9 |
| 20260903003027 | 80 | 168 | 0.0 | 0.9 | 0.00 | 0.00 | 0.00 | 81 | 1013.7 |
| 20260903001530 | 81 | 168 | 0.0 | 1.7 | 0.00 | 0.00 | 0.00 | 78 | 1013.6 |
| 20260903000044 | 82 | 169 | 0.9 | 3.5 | 0.00 | 0.00 | 0.00 | 76 | 1013.7 |
| 20260902234523 | 84 | 169 | 0.9 | 4.3 | 0.00 | 0.00 | 0.00 | 73 | 1013.9 |
| 20260902233007 | 85 | 217 | 1.7 | 4.3 | 0.00 | 0.00 | 0.00 | 70 | 1013.9 |
| 20260902231506 | 86 | 208 | 2.6 | 7.0 | 0.00 | 0.00 | 0.00 | 68 | 1014.0 |
| 20260902230005 | 87 | 216 | 2.6 | 7.0 | 0.00 | 0.00 | 0.00 | 67 | 1014.0 |
| 20260902224509 | 88 | 169 | 2.6 | 7.0 | 0.00 | 0.00 | 0.00 | 66 | 1014.0 |
| 20260902223009 | 89 | 186 | 2.6 | 7.0 | 0.00 | 0.00 | 0.00 | 65 | 1013.9 |
| 20260902221505 | 90 | 220 | 2.6 | 7.0 | 0.00 | 0.00 | 0.00 | 63 | 1014.1 |
| 20260902220008 | 91 | 218 | 2.6 | 8.7 | 0.00 | 0.00 | 0.00 | 62 | 1014.0 |
| 20260902214510 | 91 | 222 | 2.6 | 8.7 | 0.00 | 0.00 | 0.00 | 61 | 1014.1 |
| 20260902213005 | 91 | 248 | 2.6 | 8.7 | 0.00 | 0.00 | 0.00 | 60 | 1014.2 |
| 20260902211509 | 91 | 243 | 2.6 | 10.4 | 0.00 | 0.00 | 0.00 | 59 | 1014.3 |
| 20260902210006 | 92 | 202 | 1.7 | 7.8 | 0.00 | 0.00 | 0.00 | 60 | 1014.4 |
| 20260902204507 | 92 | 173 | 2.6 | 7.8 | 0.00 | 0.00 | 0.00 | 60 | 1014.4 |
| 20260902203008 | 91 | 285 | 2.6 | 7.8 | 0.00 | 0.00 | 0.00 | 62 | 1014.7 |
| 20260902201508 | 91 | 198 | 2.6 | 7.0 | 0.00 | 0.00 | 0.00 | 61 | 1014.7 |
| 20260902200008 | 91 | 209 | 3.5 | 10.4 | 0.00 | 0.00 | 0.00 | 60 | 1014.9 |
| 20260902194505 | 92 | 188 | 3.5 | 12.2 | 0.00 | 0.00 | 0.00 | 57 | 1015.0 |
| 20260902193010 | 92 | 193 | 2.6 | 7.8 | 0.00 | 0.00 | 0.00 | 59 | 1015.1 |
| 20260902191508 | 92 | 211 | 2.6 | 10.4 | 0.00 | 0.00 | 0.00 | 60 | 1015.3 |
| 20260902190012 | 91 | 244 | 3.5 | 10.4 | 0.00 | 0.00 | 0.00 | 58 | 1015.4 |
| 20260902184512 | 92 | 209 | 3.5 | 11.3 | 0.00 | 0.00 | 0.00 | 61 | 1015.4 |
| 20260902183012 | 91 | 242 | 4.3 | 10.4 | 0.00 | 0.00 | 0.00 | 62 | 1015.6 |
| 20260902181510 | 91 | 244 | 3.5 | 9.6 | 0.00 | 0.00 | 0.00 | 62 | 1015.8 |
| 20260902180017 | 91 | 227 | 2.6 | 9.6 | 0.00 | 0.00 | 0.00 | 66 | 1015.9 |
| 20260902174520 | 91 | 221 | 4.3 | 9.6 | 0.00 | 0.00 | 0.00 | 65 | 1016.0 |
| 20260902173013 | 90 | 252 | 3.5 | 7.8 | 0.00 | 0.00 | 0.00 | 67 | 1016.2 |
| 20260902171514 | 90 | 255 | 2.6 | 12.2 | 0.00 | 0.00 | 0.00 | 65 | 1016.3 |
| 20260902170017 | 90 | 188 | 3.5 | 10.4 | 0.00 | 0.00 | 0.00 | 66 | 1016.3 |
| 20260902164523 | 90 | 205 | 2.6 | 7.0 | 0.00 | 0.00 | 0.00 | 66 | 1016.4 |
| 20260902163015 | 89 | 197 | 5.2 | 9.6 | 0.00 | 0.00 | 0.00 | 66 | 1016.5 |
| 20260902161523 | 89 | 256 | 1.7 | 7.8 | 0.00 | 0.00 | 0.00 | 69 | 1016.7 |
| 20260902160015 | 89 | 230 | 1.7 | 6.1 | 0.00 | 0.00 | 0.00 | 73 | 1016.7 |
| 20260902154521 | 88 | 208 | 2.6 | 6.1 | 0.00 | 0.00 | 0.00 | 69 | 1016.7 |
| 20260902153027 | 87 | 236 | 1.7 | 6.1 | 0.00 | 0.00 | 0.00 | 71 | 1016.7 |
| 20260902151520 | 87 | 192 | 1.7 | 6.1 | 0.00 | 0.00 | 0.00 | 72 | 1016.8 |
| 20260902150021 | 86 | 157 | 0.9 | 5.2 | 0.00 | 0.00 | 0.00 | 75 | 1016.7 |
| 20260902144520 | 84 | 194 | 1.7 | 5.2 | 0.00 | 0.00 | 0.00 | 76 | 1016.7 |
| 20260902143004 | 84 | 243 | 1.7 | 5.2 | 0.00 | 0.00 | 0.00 | 80 | 1016.6 |
| 20260902141529 | 82 | 265 | 0.0 | 3.5 | 0.00 | 0.00 | 0.00 | 85 | 1016.6 |
| 20260902140009 | 80 | 244 | 0.0 | 2.6 | 0.00 | 0.00 | 0.00 | 87 | 1016.5 |
| 20260902134512 | 79 | 207 | 0.0 | 1.7 | 0.00 | 0.00 | 0.00 | 89 | 1016.4 |
| 20260902133022 | 77 | 5 | 0.0 | 2.6 | 0.00 | 0.00 | 0.00 | 93 | 1016.7 |
| 20260902131504 | 76 | 188 | 0.0 | 0.9 | 0.00 | 0.00 | 0.00 | 96 | 1016.7 |
| 20260902130029 | 74 | 188 | 0.0 | 1.7 | 0.00 | 0.00 | 0.00 | 96 | 1016.6 |
| 20260902124510 | 74 | 188 | 0.9 | 2.6 | 0.00 | 0.00 | 0.00 | 97 | 1016.5 |
| 20260902123018 | 73 | 230 | 0.9 | 3.5 | 0.00 | 0.00 | 0.00 | 97 | 1016.5 |
| 20260902121523 | 72 | 200 | 0.0 | 2.6 | 0.00 | 0.00 | 0.00 | 97 | 1016.5 |
| 20260902120004 | 71 | 200 | 0.0 | 2.6 | 0.00 | 0.00 | 0.00 | 97 | 1016.4 |
| 20260902114510 | 69 | 237 | 0.0 | 0.0 | 0.00 | 0.00 | 0.00 | 97 | 1016.2 |
| 20260902113016 | 69 | 237 | 0.0 | 0.0 | 0.00 | 0.00 | 0.00 | 96 | 1016.3 |
| 20260902111517 | 69 | 237 | 0.0 | 0.0 | 0.00 | 0.00 | 0.00 | 97 | 1016.2 |
| 20260902110028 | 70 | 237 | 0.0 | 0.0 | 0.00 | 0.00 | 0.00 | 96 | 1016.4 |
| 20260902104506 | 70 | 237 | 0.0 | 0.0 | 0.00 | 0.00 | 0.00 | 97 | 1016.4 |
| 20260902103013 | 70 | 237 | 0.0 | 0.0 | 0.00 | 0.00 | 0.00 | 97 | 1016.5 |
| 20260902101521 | 69 | 237 | 0.0 | 0.0 | 0.00 | 0.00 | 0.00 | 96 | 1016.3 |
| 20260902100024 | 70 | 237 | 0.0 | 0.0 | 0.00 | 0.00 | 0.00 | 96 | 1016.2 |
| 20260902094534 | 69 | 237 | 0.0 | 0.0 | 0.00 | 0.00 | 0.00 | 96 | 1016.1 |
| 20260902093011 | 70 | 237 | 0.0 | 0.0 | 0.00 | 0.00 | 0.00 | 96 | 1015.9 |
| 20260902091514 | 70 | 237 | 0.0 | 0.0 | 0.00 | 0.00 | 0.00 | 96 | 1015.8 |
| 20260902090020 | 70 | 237 | 0.0 | 0.0 | 0.00 | 0.00 | 0.00 | 96 | 1015.9 |
| 20260902084526 | 70 | 237 | 0.0 | 0.0 | 0.00 | 0.00 | 0.00 | 96 | 1015.7 |
| 20260902083039 | 71 | 237 | 0.0 | 0.0 | 0.00 | 0.00 | 0.00 | 96 | 1015.8 |
| 20260902081520 | 71 | 237 | 0.0 | 0.0 | 0.00 | 0.00 | 0.00 | 96 | 1015.6 |
| 20260902080018 | 72 | 237 | 0.0 | 2.6 | 0.00 | 0.00 | 0.00 | 96 | 1015.6 |
| 20260902074528 | 71 | 237 | 0.0 | 1.7 | 0.00 | 0.00 | 0.00 | 96 | 1015.5 |
| 20260902073030 | 72 | 237 | 0.0 | 1.7 | 0.00 | 0.00 | 0.00 | 96 | 1015.6 |
| 20260902071529 | 72 | 237 | 0.0 | 1.7 | 0.00 | 0.00 | 0.00 | 96 | 1015.6 |
| 20260902070016 | 71 | 237 | 0.0 | 1.7 | 0.00 | 0.00 | 0.00 | 96 | 1015.5 |
| 20260902064518 | 71 | 237 | 0.9 | 1.7 | 0.00 | 0.00 | 0.00 | 96 | 1015.7 |
| 20260902063024 | 71 | 237 | 0.0 | 0.9 | 0.00 | 0.00 | 0.00 | 96 | 1015.5 |
| 20260902061542 | 70 | 237 | 0.0 | 0.9 | 0.00 | 0.00 | 0.00 | 96 | 1015.7 |